This is the latest recevied weather packets stored in our database for station/object HA3YA-WX. If no packets are shown the sender has not sent any weather packets the latest 10 day(s).
| Time | Temp. | Humidity | Pressure | Rain* | Wind** | Luminosity | Snow |
|---|---|---|---|---|---|---|---|
| 1777486893 | 12.22° C | 38% | 1008 hPa | - | - | - | - |
| 1777486293 | 12.78° C | 37% | 1008 hPa | - | - | - | - |
| 1777485692 | 12.78° C | 37% | 1008 hPa | - | - | - | - |
| 1777485093 | 13.33° C | 36% | 1008 hPa | - | - | - | - |
| 1777484492 | 13.33° C | 36% | 1007.8 hPa | - | - | - | - |
| 1777483893 | 13.89° C | 35% | 1007.8 hPa | - | - | - | - |
| 1777483292 | 14.44° C | 35% | 1007.8 hPa | - | - | - | - |
| 1777482693 | 14.44° C | 34% | 1007.8 hPa | - | - | - | - |
| 1777482093 | 14.44° C | 34% | 1007.9 hPa | - | - | - | - |
| 1777481493 | 15° C | 34% | 1007.9 hPa | - | - | - | - |
| 1777480893 | 15° C | 34% | 1007.9 hPa | - | - | - | - |
| 1777480292 | 15.56° C | 34% | 1007.9 hPa | - | - | - | - |
| 1777479693 | 15.56° C | 33% | 1007.9 hPa | - | - | - | - |
| 1777479097 | 15.56° C | 33% | 1007.9 hPa | - | - | - | - |
| 1777478492 | 16.11° C | 33% | 1007 hPa | - | - | - | - |
| 1777477892 | 16.67° C | 33% | 1007 hPa | - | - | - | - |
| 1777477293 | 16.67° C | 33% | 1007 hPa | - | - | - | - |
| 1777476693 | 16.67° C | 33% | 1007 hPa | - | - | - | - |
| 1777476092 | 16.67° C | 34% | 1008 hPa | - | - | - | - |
| 1777475493 | 16.67° C | 33% | 1008 hPa | - | - | - | - |
| 1777474893 | 16.67° C | 34% | 1008 hPa | - | - | - | - |
| 1777474293 | 16.67° C | 33% | 1008 hPa | - | - | - | - |
| 1777473693 | 16.67° C | 34% | 1008 hPa | - | - | - | - |
| 1777473092 | 16.67° C | 34% | 1008.3 hPa | - | - | - | - |
| 1777472492 | 16.67° C | 32% | 1008.3 hPa | - | - | - | - |
* Rain since midnight (hover to see other rain measurements)
** Current wind speed in m/s (hover to see current wind gust speed)